AO-07 1 07530U 74089B 18276.85779113 -.00000021 +00000-0 +14991-3 0 9999 2 07530 101.7014 242.6009 0012322 123.6093 265.2217 12.53634649007979 UO-11 1 14781U 84021B 18277.57382263 .00000038 00000-0 10860-4 0 9997 2 14781 97.6400 309.0675 0010031 85.4182 274.8178 14.83033756860654 LO-19 1 20442U 90005G 18277.07499935 .00000007 00000-0 18780-4 0 9992 2 20442 98.6168 214.9297 0011553 183.6517 176.4584 14.32905864499483 HUBBLE 1 20580U 90037B 18276.98627898 .00000425 00000-0 15033-4 0 9992 2 20580 28.4689 115.8487 0002587 229.8837 282.5936 15.09103807361929 MET-2/21 1 22782U 93055A 18276.71057317 +.00000032 +00000-0 +15033-4 0 9999 2 22782 082.5531 007.8035 0022376 179.0664 333.1583 13.83814823266914 AO-27 1 22825U 93061C 18276.95079732 +.00000010 +00000-0 +21655-4 0 9998 2 22825 098.8753 255.1016 0009050 035.7016 324.4769 14.30040741304845 IO-26 1 22826U 93061D 18276.94241763 +.00000017 +00000-0 +24371-4 0 9998 2 22826 098.8694 255.1170 0009416 025.5071 334.6573 14.30372771305056 FO-29 1 24278U 96046B 18276.92798649 -.00000019 +00000-0 +16166-4 0 9991 2 24278 098.5151 100.6964 0350218 188.6022 170.9014 13.53085843092694 NOAA-15 1 25338U 98030A 18277.66026902 .00000023 00000-0 28546-4 0 9991 2 25338 98.7664 294.1481 0009402 269.4205 90.5897 14.25877612 60620 GO-32 1 25397U 98043D 18276.82778418 -.00000008 00000-0 15812-4 0 9999 2 25397 98.6571 215.5039 0002371 74.9814 285.1626 14.23652263 51184 ISS 1 25544U 98067A 18277.80515962 .00002342 00000-0 43129-4 0 9995 2 25544 51.6420 192.4477 0003709 238.7968 221.7223 15.53776964135568 NO-44 1 26931U 01043C 18277.49348237 -.00000016 00000-0 25852-4 0 9998 2 26931 67.0507 307.3631 0007344 260.0793 99.9480 14.30518548888187 SO-50 1 27607U 02058C 18277.53888131 -.00000024 00000-0 17465-4 0 9993 2 27607 64.5535 115.7647 0075222 305.7065 53.7053 14.75484494849090 CO-55 1 27844U 03031E 18276.94125871 +.00000053 +00000-0 +43483-4 0 9997 2 27844 098.6880 283.9970 0010793 060.3126 299.9125 14.22135953791618 CO-57 1 27848U 03031J 18276.50869965 .00000038 00000-0 37292-4 0 9996 2 27848 98.6965 284.0036 0010792 71.3047 288.9301 14.21737247791453 RS-22 1 27939U 03042A 18277.60153071 .00000069 00000-0 20947-4 0 9998 2 27939 98.0066 54.0123 0013530 156.7432 260.7286 14.66719815802858 NOAA-18 1 28654U 05018A 18277.62725035 -.00000012 00000-0 18676-4 0 9990 2 28654 99.1351 315.2521 0014489 176.5222 183.6052 14.12386400689237 CO-58 1 28895U 05043F 18277.39022214 .00000134 00000-0 34502-4 0 9998 2 28895 97.9245 64.5208 0018184 85.1663 275.1616 14.63586487689852 Falconsat-3 1 30776U 07006E 18276.51479561 .00002412 00000-0 70855-4 0 9996 2 30776 35.4356 296.9050 0003712 284.1660 75.8654 15.34984440640975 CO-65 1 32785U 08021C 18277.57987840 .00000188 00000-0 26017-4 0 9996 2 32785 97.5477 284.5375 0014090 41.0188 319.2086 14.88182199565440 AAUSAT2 1 32788U 08021F 18277.02827941 .00000432 00000-0 45105-4 0 9995 2 32788 97.5161 298.9701 0011489 351.9330 8.1704 14.94466115566437 DO-64 1 32789U 08021G 18276.59794788 .00000645 00000-0 47949-4 0 9993 2 32789 97.5013 328.6133 0010744 289.9053 70.1016 15.06338053568103 CO-66 1 32791U 08021J 18277.01936627 .00000199 00000-0 25710-4 0 9990 2 32791 97.5342 289.5950 0013930 22.7208 337.4624 14.90638292565727 RS-30 1 32953U 08025A 18277.57838869 .00000026 00000-0 11592-3 0 9995 2 32953 82.5001 304.6504 0018378 334.4092 25.6077 12.43085857470364 PRISM 1 33493U 09002B 18277.43865054 .00001190 00000-0 11057-3 0 9991 2 33493 98.1189 183.6708 0014664 319.4224 40.5915 14.96356510526680 NOAA-19 1 33591U 09005A 18277.66756853 .00000071 00000-0 63974-4 0 9997 2 33591 99.1542 257.9292 0014441 23.4317 336.7509 14.12310820497626 TISAT-1 1 36799U 10035E 18277.38229483 .00000304 00000-0 36906-4 0 9992 2 36799 98.1221 56.5992 0011791 204.4692 155.5967 14.90893299446423 JUGNU 1 37839U 11058B 18277.61605297 .00000299 00000-0 17552-4 0 9990 2 37839 19.9612 93.6863 0018974 13.1679 33.7433 14.12630276360869 SRMSAT 1 37841U 11058D 18277.03260618 .00000298 00000-0 18310-4 0 9995 2 37841 19.9712 148.6746 0011824 246.0064 258.3044 14.10615579360260 AO-71 1 37854U 11061E 18276.80139702 .00001545 00000-0 87191-4 0 9995 2 37854 101.7048 37.3968 0162794 111.3312 250.5364 15.05771158378178 HRBE 1 37855U 11061F 18277.53317912 .00001671 00000-0 92003-4 0 9996 2 37855 101.7166 36.0045 0175701 118.5603 243.3418 15.04759947378098 ALMASAT-1 1 38078U 12006B 18277.46091310 .00021291 40059-5 16782-3 0 9999 2 38078 69.4327 273.0350 0221572 299.3985 221.6556 15.46422324357514 HORYU-2 1 38340U 12025D 18277.04559054 .00000154 00000-0 30728-4 0 9999 2 38340 98.3603 302.4701 0010750 219.5882 140.4542 14.75606468343168 RS-40 1 38735U 12041C 18276.89272247 +.00000011 +00000-0 +46679-5 0 9998 2 38735 082.4803 028.8294 0017708 079.1676 281.1395 12.42577698280500 BEESAT-3 1 39135U 13015F 18277.07738334 .00000613 00000-0 40856-4 0 9998 2 39135 64.8674 149.3836 0012221 233.8409 126.1587 15.16900424301162 BEESAT-2 1 39136U 13015G 18277.08581724 .00000568 00000-0 39137-4 0 9998 2 39136 64.8684 152.4381 0012719 234.2870 125.7072 15.16358450301107 ZACUBE-1 1 39417U 13066B 18277.49994420 .00000187 00000-0 29900-4 0 9996 2 39417 97.5808 300.2642 0059735 155.7608 204.6436 14.80986769262970 TRITON-1 1 39427U 13066M 18277.58522826 .00000161 00000-0 33964-4 0 9991 2 39427 97.6504 266.3157 0112488 268.9527 89.8790 14.67722616260620 GOMX-1 1 39430U 13066Q 18277.54554229 .00000225 00000-0 49890-4 0 9999 2 39430 97.7103 246.6108 0151267 345.9643 13.7375 14.59134052259096 LO-74 1 39440U 13066AA 18276.96886737 +.00000181 +00000-0 +32307-4 0 9993 2 39440 097.6009 285.7392 0079859 201.2408 158.5481 14.75727128260761 AO-73 1 39444U 13066AE 18277.03259757 .00000221 00000-0 33567-4 0 9996 2 39444 97.5812 301.4836 0058958 152.2638 208.1742 14.81780902261772 SPROUT 1 39770U 14029E 18277.34100721 .00000735 00000-0 88244-4 0 9990 2 39770 97.8790 17.5119 0008351 205.4899 154.5899 14.86992961236586 DUCHIFAT-1 1 40021U 14033M 18276.75699025 .00000254 00000-0 31947-4 0 9994 2 40021 97.9131 195.6594 0012829 174.2358 185.9009 14.90400136233121 NANOSATCBR1 1 40024U 14033Q 18277.32242235 .00000358 00000-0 43315-4 0 9995 2 40024 97.9056 194.2459 0012129 174.8734 185.2610 14.89650731233129 EO-79 1 40025U 14033R 18276.76143119 .00000228 00000-0 30413-4 0 9995 2 40025 97.9005 191.9129 0012239 181.4739 178.6444 14.88782878232940 DTUSAT-2 1 40030U 14033W 18277.29302059 .00000212 00000-0 28929-4 0 9992 2 40030 97.8945 190.9940 0011847 174.6066 185.5281 14.88386001232965 EO-80 1 40032U 14033Y 18277.35549235 .00000216 00000-0 29379-4 0 9994 2 40032 97.8952 191.0584 0011809 174.9077 185.2261 14.88324902232961 ANTELSAT 1 40034U 14033AA 18276.88973542 .00000157 00000-0 30963-4 0 9990 2 40034 97.7939 149.4604 0058030 206.7128 153.1089 14.73976353230692 VELOX-1 1 40057U 14034E 18277.61587745 .00000264 00000-0 44575-4 0 9997 2 40057 98.2124 30.6116 0010519 344.2203 15.8723 14.77498369229800 DAURIA DX 1 1 40071U 14037C 18277.58718354 .00000075 00000-0 17135-4 0 9996 2 40071 98.3915 53.9289 0008206 339.0651 21.0232 14.81193797229191 UKUBE-1 1 40074U 14037F 18277.39372222 .00000225 00000-0 34343-4 0 9995 2 40074 98.4026 60.2728 0004304 337.4615 22.6411 14.83871235229495 HODOYOSHI-1 1 40299U 14070B 18277.53119324 .00000620 00000-0 29280-4 0 9992 2 40299 97.3716 357.3457 0011793 221.5028 269.3705 15.23042057217128 CHUBUSAT-1 1 40300U 14070C 18277.37826038 .00000514 00000-0 25676-4 0 9991 2 40300 97.3544 352.7052 0018818 238.4614 181.7226 15.21724759216884 QSAT-EOS 1 40301U 14070D 18277.57983478 .00001492 00000-0 62030-4 0 9997 2 40301 97.3518 354.6596 0025077 224.4176 247.8977 15.25090250217090 FIREBIRD FU3 1 40377U 15003B 18277.58199906 .00001345 00000-0 58497-4 0 9992 2 40377 99.0811 201.0037 0129152 226.3896 132.6560 15.17667852202915 FIREBIRD FU4 1 40378U 15003C 18277.37244108 .00001406 00000-0 60884-4 0 9996 2 40378 99.0813 200.8157 0129357 226.9810 132.0524 15.17675314202889 GRIFEX 1 40379U 15003D 18277.55365016 .00001039 00000-0 49474-4 0 9993 2 40379 99.0820 196.6141 0136469 240.7816 117.9706 15.14666711202652 NO-84 1 40654U 15025D 18276.33778952 +.00010990 +00000-0 +17074-3 0 04222 2 40654 054.9903 267.1315 0154288 026.1125 334.7563 15.42163605072521 NO-83 1 40655U 15025E 18276.40033939 +.00029491 +00000-0 +26805-3 0 04992 2 40655 054.9718 196.5384 0100145 068.1492 293.0183 15.61471089073168 DEORBITSAIL 1 40719U 15032E 18277.63225373 .00000350 00000-0 57428-4 0 9996 2 40719 97.9308 169.2933 0017775 56.9498 303.3417 14.76525653174322 NUDT-PHONESAT 1 40900U 15049B 18277.54124876 .00001872 00000-0 85560-4 0 9990 2 40900 97.4422 284.5648 0013677 14.1115 346.0500 15.21742629168548 XW-2A 1 40903U 15049E 18277.54915959 .00001647 00000-0 42084-4 0 9997 2 40903 97.3744 313.4563 0013941 3.0961 357.0369 15.40893704170646 XW-2C 1 40906U 15049H 18277.54352461 .00000573 00000-0 33849-4 0 9999 2 40906 97.4636 279.0581 0015465 17.2612 342.9143 15.15333660168057 XW-2D 1 40907U 15049J 18277.55072832 .00000618 00000-0 36068-4 0 9998 2 40907 97.4611 278.7513 0014752 15.2865 344.8810 15.15495479168068 LILACSAT-2 1 40908U 15049K 18277.55977035 .00000343 00000-0 22696-4 0 9995 2 40908 97.4727 277.9744 0016475 17.4905 342.6891 15.13597644167910 XW-2E 1 40909U 15049L 18277.59364302 .00000973 00000-0 52176-4 0 9992 2 40909 97.4586 281.0154 0014193 13.5634 346.5978 15.17241338168208 XW-2F 1 40910U 15049M 18277.54276024 .00000946 00000-0 51488-4 0 9997 2 40910 97.4605 280.2580 0015287 10.1205 350.0333 15.16758454168035 XW-2B 1 40911U 15049N 18277.57239537 .00000611 00000-0 35743-4 0 9994 2 40911 97.4644 279.3495 0014662 15.8882 344.2807 15.15435821167963 DCBB 1 40912U 15049P 18277.58108616 .00000989 00000-0 50403-4 0 9997 2 40912 97.4523 283.3847 0015003 356.4054 98.5900 15.19004290168275 TW-1C 1 40926U 15051B 18277.58834002 .00008467 00000-0 14860-3 0 9995 2 40926 97.1724 319.4698 0008441 227.4649 285.3928 15.50748237170258 TW-1A 1 40928U 15051D 18277.58170825 .00002593 00000-0 68579-4 0 9994 2 40928 97.1760 309.3868 0010068 290.4969 220.6213 15.39260784169609 IO-86 1 40931U 15052B 18277.54792363 .00000681 00000-0 58799-5 0 9992 2 40931 6.0007 90.2823 0012615 116.2447 243.8990 14.76586380163199 LQSat 1 40958U 15057A 18277.52919332 .00000038 00000-0 13663-4 0 9997 2 40958 97.9311 348.2134 0018086 350.7416 9.3463 14.73050715160940 AO-85 1 40967U 15058D 18276.35460271 +.00000127 +00000-0 +31092-4 0 04654 2 40967 064.7762 222.8531 0213626 281.0760 076.6389 14.75788887069611 ATHENOXAT-1 1 41168U 15077C 18277.60718976 .00001834 00000-0 63122-4 0 9993 2 41168 14.9825 299.3641 0011704 118.4801 354.5991 15.13021650154977 ChubuSat-2 1 41338U 16012B 18276.58127426 +.00000327 +00000-0 +18854-4 0 9990 2 41338 031.0041 344.9454 0013783 066.3785 293.8296 15.00032447144127 ChubuSat-3 1 41339U 16012C 18277.51312038 .00000306 00000-0 17099-4 0 9997 2 41339 31.0126 337.4620 0013456 83.3521 276.8690 15.00216524144251 Horyu-4 1 41340U 16012D 18276.84616354 +.00000485 +00000-0 +30355-4 0 9990 2 41340 031.0059 335.4796 0014008 090.6211 269.6029 15.01068996144234 OUFTI-1 1 41458U 16025C 18277.55413011 .00001696 00000-0 90944-4 0 9993 2 41458 98.1239 346.2087 0169753 140.6733 220.7091 15.04986148133881 e-st@r-II 1 41459U 16025D 18277.44842940 .00001526 00000-0 82540-4 0 9994 2 41459 98.1273 345.8928 0171291 141.7546 219.5996 15.04703694133853 AAUSAT4 1 41460U 16025E 18277.45138806 .00002515 00000-0 13135-3 0 9998 2 41460 98.1198 346.5832 0162064 136.9040 224.4937 15.06264902133931 LO-87 1 41557U 16033B 18277.30839781 .00001176 00000-0 46913-4 0 9991 2 41557 97.4332 1.1988 0014915 123.3810 236.8859 15.27120465130814 NuSat2 1 41558U 16033C 18277.31857268 -.00000072 00000-0 11064-6 0 9999 2 41558 97.4359 1.4762 0014379 126.8420 233.4141 15.28410125130819 Lapan A3 1 41603U 16040E 18277.58543624 .00000046 00000-0 53409-5 0 9993 2 41603 97.3996 337.0505 0012467 213.1788 253.0870 15.19612384126691 Swayam 1 41607U 16040J 18277.09941437 .00001304 00000-0 59157-4 0 9990 2 41607 97.4021 338.5242 0012851 210.2478 149.8018 15.22538959126673 Pratham 1 41783U 16059A 18277.09289001 .00000026 00000-0 14382-4 0 9998 2 41783 98.1062 336.8279 0034862 113.0041 247.4844 14.62946148107884 AlSat 1N 1 41789U 16059G 18277.57349984 .00000081 00000-0 24491-4 0 9997 2 41789 98.1079 338.7478 0029655 102.6012 257.8529 14.64183674108027 ScatSat 1 41790U 16059H 18277.07056915 -.00000000 00000-0 11073-4 0 9997 2 41790 98.2483 322.8186 0019418 115.7254 244.5949 14.50875190106975 TY-1 1 41844U 16066D 18277.58087296 .00001477 00000-0 64602-4 0 9991 2 41844 97.4073 283.1193 0016133 18.7346 133.9540 15.23557077105534 Pegasus-1 1 41846U 16066F 18277.05946537 .00000208 00000-0 43243-4 0 9996 2 41846 98.7464 307.7088 0366959 283.8316 72.2301 14.37412027 99548 CAS-2T 1 41847U 16066G 18277.56874005 .00000030 00000-0 16106-4 0 9994 2 41847 98.7419 308.7139 0365032 279.5293 76.4827 14.37925635100045 TO-89 1 41932U 98067KU 18277.00616249 .00063061 00000-0 25518-3 0 9992 2 41932 51.6281 136.7141 0003281 231.4420 128.6290 15.85683925 97979 AOBA-V3LOX3 1 41935U 98067KX 18277.06544608 .00175542 23701-4 37748-3 0 9993 2 41935 51.6292 126.4655 0004711 241.7675 118.2859 15.98111106 98210 EO-88 1 42017U 17008BX 18276.65357955 .00001307 00000-0 55656-4 0 9991 2 42017 97.4376 341.0230 0006458 13.9382 346.2033 15.24753622 90595 HAVELSAT 1 42700U 98067LH 18277.07632739 .00046214 00000-0 26586-3 0 9992 2 42700 51.6297 155.3216 0001319 292.1211 67.9649 15.78242999 79171 SOMP2 1 42701U 98067LJ 18277.21408244 .00041977 00000-0 25994-3 0 9994 2 42701 51.6354 157.0316 0001472 262.5272 97.5560 15.76625601 79156 PHOENIX 1 42706U 98067LP 18277.17572429 .00028247 00000-0 19798-3 0 9991 2 42706 51.6343 159.0511 0001534 178.3761 181.7243 15.73977653 79040 X-CubeSat 1 42707U 98067LQ 18277.56608674 .00045281 00000-0 24414-3 0 9995 2 42707 51.6303 151.7463 0002173 199.0559 161.0361 15.79690643 79169 qbee 1 42708U 98067LR 18277.53022745 .00040095 00000-0 23458-3 0 9997 2 42708 51.6308 153.8644 0001448 172.5216 187.5807 15.77930120 79094 ZA-AeroSat 1 42713U 98067LU 18277.11229062 .00029103 00000-0 21726-3 0 9991 2 42713 51.6331 163.1194 0002319 189.1331 170.9625 15.72476634 78644 LINK 1 42714U 98067LV 18265.92001965 +.06744984 +12188-4 +74906-3 0 9997 2 42714 051.6396 192.6696 0007557 179.7176 180.2695 16.36256502077350 UPSat 1 42716U 98067LX 18277.53990403 .00116771 16172-4 37082-3 0 9995 2 42716 51.6263 142.4708 0002912 226.4363 133.6401 15.91034726 79081 SpaceCube 1 42717U 98067LY 18277.12300713 .00042453 00000-0 24969-3 0 9994 2 42717 51.6259 156.3332 0000876 262.4858 97.6043 15.77784539 78101 Hoopoe 1 42718U 98067LZ 18277.57892671 .00064830 00000-0 28619-3 0 9992 2 42718 51.6271 148.0719 0002017 221.6889 138.3961 15.83857001 78253 NJUST-1 1 42722U 98067MB 18277.56666377 .00020279 00000-0 16172-3 0 9998 2 42722 51.6343 163.1939 0003295 274.6582 85.4040 15.71137017 77756 UNSW-EC0 1 42723U 98067MC 18277.10837799 .00099657 00000-0 38692-3 0 9994 2 42723 51.6369 149.5405 0002825 238.9379 121.1349 15.86362980 77874 LO-90 1 42725U 98067ME 18277.25882520 .00037680 00000-0 24636-3 0 9995 2 42725 51.6345 159.6036 0002290 256.5240 103.5505 15.75433895 77679 nSIGHT1 1 42726U 98067MF 18277.17681500 .00012236 00000-0 13502-3 0 9992 2 42726 51.6379 177.2216 0003832 278.8078 81.2483 15.63519810 77443 SNUSAT 1B 1 42727U 98067MG 18277.08234984 .00036764 00000-0 24153-3 0 9999 2 42727 51.6322 160.5972 0004406 231.1096 128.9511 15.75327522 77616 QBITO 1 42728U 98067MH 18277.11690661 .00047439 00000-0 26982-3 0 9995 2 42728 51.6345 156.4505 0001422 224.8706 135.2181 15.78485286 77518 Aalto-2 1 42729U 98067MJ 18277.13042682 .00053095 00000-0 29184-3 0 9994 2 42729 51.6287 155.6743 0001304 211.9619 148.1303 15.79197146 77535 SUSat 1 42730U 98067MK 18277.13842703 .00039663 00000-0 25024-3 0 9992 2 42730 51.6325 158.7681 0001279 228.4489 131.6401 15.76227306 77483 i-INSPIRE II 1 42731U 98067ML 18277.10946121 .00121959 00000-0 44311-3 0 9999 2 42731 51.6325 147.9213 0004950 212.6644 147.4055 15.87624899 77673 PolyITAN-2-SAU 1 42732U 98067MM 18277.08302762 .00048955 00000-0 26803-3 0 9994 2 42732 51.6318 155.3332 0004631 215.0126 145.0571 15.79307515 77579 ExAlta-1 1 42734U 98067MP 18277.62897400 .00106591 15292-4 35015-3 0 9993 2 42734 51.6236 143.7427 0004622 238.7036 121.3518 15.90415857 77725 Aoxiang-1 1 42735U 98067MQ 18277.56803872 .00021914 00000-0 17062-3 0 9991 2 42735 51.6334 162.4162 0003618 271.5718 88.4866 15.71654204 78893 BeEagleSat 1 42736U 98067MR 18277.55699640 .00027950 00000-0 19443-3 0 9998 2 42736 51.6334 159.3116 0003196 267.3565 92.7068 15.74156087 77623 CAS-4B 1 42759U 17034B 18277.65669713 .00000337 00000-0 34276-4 0 9999 2 42759 43.0177 202.2612 0009090 67.5959 0.8684 15.09383698 71999 CAS-4A 1 42761U 17034D 18277.76978414 .00000248 00000-0 28785-4 0 9994 2 42761 43.0191 201.3437 0009234 71.0360 22.1946 15.09459593 72008 UCLSat 1 42765U 17036A 18277.08470000 .00001069 00000-0 49648-4 0 9996 2 42765 97.3895 335.1249 0013149 59.5788 300.6746 15.22103501 71277 NIUSat 1 42766U 17036B 18277.57588222 .00000816 00000-0 40226-4 0 9999 2 42766 97.3894 334.6409 0017034 46.1020 314.1619 15.20601135 71157 LituanicaSAT 2 1 42768U 17036D 18276.57906667 .00001796 00000-0 81986-4 0 9993 2 42768 97.3916 334.1886 0016766 51.1313 309.1416 15.21777452 71044 Aalto 1 1 42775U 17036L 18277.58259584 .00000668 00000-0 33222-4 0 9999 2 42775 97.3885 334.9041 0015314 46.7596 313.4915 15.20919257 71120 URSA MAIOR 1 42776U 17036M 18277.10242342 .00000762 00000-0 37385-4 0 9991 2 42776 97.3893 334.5083 0015192 48.4551 311.7985 15.21014041 71054 Max Valier Sat 1 42778U 17036P 18277.09655155 .00000856 00000-0 41002-4 0 9996 2 42778 97.3921 334.9452 0013848 53.5823 306.6687 15.21517422 71061 Pegasus 1 42784U 17036V 18277.46487176 .00001055 00000-0 49276-4 0 9993 2 42784 97.3897 335.3965 0013655 58.2623 301.9942 15.21902974 71130 NUDATSat 1 42787U 17036Y 18276.94385830 +.00001522 +00000-0 +68429-4 0 9992 2 42787 097.3907 335.2001 0013166 059.6227 300.6310 15.22584150070910 SUCHAI 1 1 42788U 17036Z 18277.59864928 .00001176 00000-0 54141-4 0 9996 2 42788 97.3899 335.6759 0013245 57.7889 302.4630 15.22212450 71238 SKCUBE 1 42789U 17036AA 18276.94400840 +.00001124 +00000-0 +51942-4 0 9993 2 42789 097.3897 335.0163 0013132 059.8598 300.3938 15.22155289071059 VZLUSAT 1 1 42790U 17036AB 18276.47189052 +.00001481 +00000-0 +66645-4 0 9994 2 42790 097.3906 334.7423 0012779 061.5241 298.7281 15.22596439070997 VENTA 1 1 42791U 17036AC 18276.59373143 +.00001103 +00000-0 +50993-4 0 9994 2 42791 097.3897 334.7178 0012800 061.7090 298.5436 15.22191387070996 Robusta 1B 1 42792U 17036AD 18276.63911928 .00001172 00000-0 53806-4 0 9991 2 42792 97.3897 334.8020 0012727 61.8575 298.3946 15.22310782 71022 D-SAT 1 42794U 17036AF 18277.10531924 .00000170 00000-0 20605-4 0 9998 2 42794 97.5795 327.5781 0125414 279.8570 78.8509 14.90936356 69950 BIRD-J 1 42820U 98067MU 18276.74197094 +.00027405 +00000-0 +20042-3 0 9990 2 42820 051.6331 166.6367 0002939 183.8830 176.2146 15.72996047070932 BIRD-G 1 42821U 98067MV 18277.09500120 .00029321 00000-0 22209-3 0 9994 2 42821 51.6332 166.0033 0002870 187.5491 172.5464 15.72126990 70930 BIRD-M 1 42822U 98067MW 18277.56197317 .00027090 00000-0 20152-3 0 9993 2 42822 51.6330 163.1235 0002914 191.9085 168.1845 15.72601274 71015 BIRD-B 1 42823U 98067MX 18276.72210870 .00025972 00000-0 19215-3 0 9996 2 42823 51.6336 167.2891 0004003 218.9800 141.0910 15.72752657 70880 BIRD-N 1 42824U 98067MY 18277.08210203 .00029726 00000-0 22218-3 0 9995 2 42824 51.6338 165.9674 0003939 222.0312 138.0384 15.72431138 70922 TechnoSat 1 42829U 17042E 18277.49718621 .00000030 00000-0 84432-5 0 9991 2 42829 97.5844 175.6648 0013837 190.0221 170.0724 14.90867089 66610 TOMSK-TPU 120 1 42910U 98067MZ 18277.58178131 .00017322 00000-0 15927-3 0 9997 2 42910 51.6335 170.7717 0004246 251.7264 108.3271 15.67786464 64527 TANYUSHA 1 1 42911U 98067NA 18277.53873737 .00020221 00000-0 17288-3 0 9991 2 42911 51.6338 169.0217 0003921 242.4229 117.6370 15.69452593 64522 TANYUSHA 2 1 42912U 98067NB 18277.33444546 .00022408 00000-0 19783-3 0 9993 2 42912 51.6368 171.4118 0003189 254.8811 105.1833 15.68594967 64496 SFERA 2 1 42913U 98067NC 18277.06475881 .00105085 00000-0 42886-3 0 9993 2 42913 51.6320 155.9109 0002772 221.6781 138.4012 15.85311861 64630 TNS 0-2 1 42914U 98067ND 18277.57675800 .00017223 00000-0 15960-3 0 9992 2 42914 51.6347 171.5462 0003399 249.5093 110.5538 15.67601411 64500 QIKCOM-1 1 42983U 98067NF 18277.60508979 .00002912 00000-0 46382-4 0 9996 2 42983 51.6393 189.0917 0003542 239.6140 120.4502 15.56955694 53264 AO-91 1 43017U 17073E 18277.60613641 .00000499 00000-0 45339-4 0 9995 2 43017 97.7096 204.1936 0257818 275.4985 81.6872 14.78225457 47278 EcAMSat 1 43019U 98067NG 18277.16135543 .00005434 00000-0 77225-4 0 9993 2 43019 51.6403 189.8878 0004501 210.9386 149.1342 15.58151256135536 PICSAT 1 43132U 18004X 18276.79698879 .00001175 00000-0 53131-4 0 9994 2 43132 97.5231 339.7189 0011563 81.0850 279.1694 15.22900422 40245 AO-92 1 43137U 18004AC 18276.65051772 .00000901 00000-0 41453-4 0 9999 2 43137 97.5227 339.5963 0011112 82.9027 277.3472 15.22926480 40212 TianYi 2 1 43155U 18008A 18277.59103590 .00000518 00000-0 34985-4 0 9999 2 43155 97.5161 350.1711 0019377 126.3355 341.5150 15.10723687 39000 Zhou Enlai 1 43156U 18008B 18277.55234910 .00001257 00000-0 80606-4 0 9999 2 43156 97.5210 350.0729 0016048 122.6494 349.8849 15.10200966 38981 TianYi 6 1 43158U 18008D 18277.46051222 .00000629 00000-0 42660-4 0 9994 2 43158 97.5168 349.7395 0015013 119.1851 305.4516 15.09882760 38949 S-Net G 1 43186U 18014G 18277.34580753 .00000274 00000-0 29191-4 0 9995 2 43186 97.7160 184.3715 0011962 141.3682 218.8397 14.96504985 36645 S-Net H 1 43187U 18014H 18277.54625910 .00000290 00000-0 30611-4 0 9990 2 43187 97.7158 184.5638 0011969 140.7462 219.4629 14.96506128 36674 S-Net J 1 43188U 18014J 18277.34553548 .00000265 00000-0 28370-4 0 9997 2 43188 97.7161 184.3738 0011944 141.4697 218.7380 14.96506634 36644 S-Net K 1 43189U 18014K 18277.34572157 .00000272 00000-0 28989-4 0 9999 2 43189 97.7158 184.3647 0011947 141.2834 218.9246 14.96505536 35196 FMN 1 1 43192U 18015A 18276.97172790 +.00002057 +00000-0 +89562-4 0 9998 2 43192 097.3694 043.7353 0017886 117.5408 242.7649 15.23207892037070 Shaonian Xing 1 43199U 18015H 18276.96033882 +.00001428 +00000-0 +61663-4 0 9995 2 43199 097.3473 043.3402 0018585 129.4806 230.8073 15.23983237037101 1KUNS-PF 1 43466U 98067NP 18277.04825539 .00012741 00000-0 17334-3 0 9990 2 43466 51.6390 193.6195 0001361 118.7380 241.3749 15.57954946 22652 UBAKUSAT 1 43467U 98067NQ 18277.20080123 .00009246 00000-0 13085-3 0 9996 2 43467 51.6392 193.1421 0002945 157.7970 202.3150 15.57285336 22685 Irazu 1 43468U 98067NR 18276.95902075 +.00014330 +00000-0 +19016-3 0 9997 2 43468 051.6390 193.7742 0001444 114.1547 245.9596 15.58506244122634 EnduroSat One 1 43551U 98067NZ 18276.93499025 +.00009723 +00000-0 +14270-3 0 9991 2 43551 051.6384 195.8559 0005418 255.7638 104.2752 15.56216155012857 EQUISat 1 43552U 98067PA 18276.81002918 .00008456 00000-0 12582-3 0 9996 2 43552 51.6388 196.5222 0005699 256.3824 103.6533 15.56040693 12797 UiTMSat 1 1 43589U 98067PD 18276.77977983 +.00009608 +00000-0 +14429-3 0 9996 2 43589 051.6385 197.0671 0004989 266.3332 093.7089 15.55601647008526 Maya 1 1 43590U 98067PE 18276.77879275 .00009649 00000-0 14473-3 0 9997 2 43590 51.6385 197.0609 0005075 267.4973 92.5437 15.55629617 8452 Bhutan 1 1 43591U 98067PF 18276.77747998 .00009636 00000-0 14433-3 0 9996 2 43591 51.6385 197.0522 0005162 269.0423 90.9977 15.55669129 8455 SiriusSat 1 1 43595U 98067PG 18277.30741071 .00009938 00000-0 15100-3 0 9993 2 43595 51.6386 194.5869 0003236 206.7734 153.3091 15.55237883 7716 SiriusSat 2 1 43596U 98067PH 18277.37605325 .00009829 00000-0 15019-3 0 9990 2 43596 51.6396 194.3004 0003794 213.5720 146.5032 15.55095869 7723 SurfSat 1 43614U 18070B 18276.95421652 +.00002364 +00000-0 +66959-4 0 9996 2 43614 093.0249 257.1493 0014723 212.3178 147.7174 15.36256774002828 CP-7 DAVE 1 43615U 18070C 18276.95408902 +.00002293 +00000-0 +64956-4 0 9996 2 43615 093.0239 257.1484 0014599 212.1451 147.8914 15.36266047002828 ELFIN-B 1 43616U 18070D 18276.95340047 -.00000006 00000-0 00000+0 0 9998 2 43616 93.0222 257.1350 0015948 216.0732 143.9503 15.36316128 2824 ELFIN-A 1 43617U 18070E 18277.47426868 -.00000006 00000-0 00000+0 0 9993 2 43617 93.0271 257.3710 0015114 209.5604 150.5097 15.36344422 2900 /EX
